View from above orbital plane
|
View from above satellite
|
Ground track
|
The orbit data is extracted from the following two-line orbital elements,
1 12443U 81041B 21018.88743782 .00000014 00000-0 14130-4 0 9995
2 12443 74.0554 286.7637 0003329 55.2264 304.9201 14.34747110 75868
Epoch (UTC): | 18 January 2021 21:17:54 |
Eccentricity: | 0.0003329 |
inclination: | 74.0554° |
perigee height: | 773 km |
apogee height: | 778 km |
right ascension of ascending node: | 286.7637° |
argument of perigee: | 55.2264° |
revolutions per day: | 14.34747110 |
mean anomaly at epoch: | 304.9201° |
orbit number at epoch: | 7586 |
The dashed part of the orbit path shows where the satellite is in the earth's shadow,
|
|